Meteo pe oră la Ablezki

Astăzi, 24 Iulie, Sâmbătă

Timp Temperatura Precipitaţii Vânt Presiune Umiditate
00:00 +14°C° 0 mm 1 m/s 739 mmHg 82%
01:00 +14°C° 0 mm 1 m/s 739 mmHg 81%
02:00 +14°C° 0 mm 1 m/s 740 mmHg 79%
03:00 +14°C° 0 mm 1 m/s 740 mmHg 78%
04:00 +15°C° 0 mm 1 m/s 740 mmHg 78%
05:00 +15°C° 0 mm 1 m/s 740 mmHg 77%
06:00 +16°C° 0 mm 1 m/s 740 mmHg 75%
07:00 +16°C° 0 mm 1 m/s 741 mmHg 72%
08:00 +17°C° 0 mm 2 m/s 741 mmHg 69%
09:00 +19°C° 0 mm 2 m/s 741 mmHg 62%
10:00 +20°C° 0 mm 2 m/s 741 mmHg 54%
11:00 +21°C° 0 mm 2 m/s 742 mmHg 47%
12:00 +23°C° 0 mm 2 m/s 742 mmHg 46%
13:00 +23°C° 0 mm 1 m/s 742 mmHg 45%
14:00 +23°C° 0 mm 1 m/s 742 mmHg 44%
15:00 +23°C° 0 mm 1 m/s 742 mmHg 48%
16:00 +23°C° 0 mm 1 m/s 742 mmHg 52%
17:00 +21°C° 0 mm 2 m/s 742 mmHg 56%
18:00 +21°C° 0 mm 1 m/s 743 mmHg 58%
19:00 +20°C° 0 mm 1 m/s 743 mmHg 60%
20:00 +18°C° 0 mm 1 m/s 743 mmHg 62%
21:00 +18°C° 0 mm 1 m/s 743 mmHg 62%
22:00 +18°C° 0 mm 1 m/s 744 mmHg 61%
23:00 +18°C° 0 mm 1 m/s 744 mmHg 61%

Mâine, 25 Iulie, Duminică

Timp Temperatura Precipitaţii Vânt Presiune Umiditate
00:00 +18°C° 0 mm 1 m/s 744 mmHg 61%
01:00 +16°C° 0 mm 1 m/s 744 mmHg 61%
02:00 +16°C° 0 mm 1 m/s 744 mmHg 61%
03:00 +16°C° 0 mm 1 m/s 745 mmHg 62%
04:00 +16°C° 0 mm 1 m/s 745 mmHg 63%
05:00 +16°C° 0 mm 1 m/s 745 mmHg 64%
06:00 +18°C° 0 mm 1 m/s 745 mmHg 61%
07:00 +20°C° 0 mm 1 m/s 745 mmHg 58%
08:00 +21°C° 0 mm 1 m/s 746 mmHg 55%
09:00 +21°C° 0 mm 2 m/s 746 mmHg 51%
10:00 +23°C° 0 mm 2 m/s 746 mmHg 47%
11:00 +25°C° 0 mm 2 m/s 746 mmHg 42%
12:00 +25°C° 0 mm 2 m/s 746 mmHg 42%
13:00 +25°C° 0 mm 2 m/s 746 mmHg 41%
14:00 +26°C° 0 mm 2 m/s 746 mmHg 41%
15:00 +25°C° 0 mm 2 m/s 746 mmHg 46%
16:00 +24°C° 0 mm 1 m/s 746 mmHg 52%
17:00 +23°C° 0 mm 1 m/s 746 mmHg 57%
18:00 +21°C° 0 mm 2 m/s 746 mmHg 60%
19:00 +20°C° 0 mm 2 m/s 746 mmHg 62%
20:00 +19°C° 0 mm 2 m/s 746 mmHg 64%
21:00 +18°C° 0 mm 2 m/s 747 mmHg 66%
22:00 +18°C° 0 mm 2 m/s 747 mmHg 67%
23:00 +17°C° 0 mm 2 m/s 747 mmHg 68%

Poimâine, 26 Iulie, Luni

Timp Temperatura Precipitaţii Vânt Presiune Umiditate
00:00 +17°C° 0 mm 2 m/s 747 mmHg 70%
01:00 +16°C° 0 mm 2 m/s 747 mmHg 72%
02:00 +16°C° 0 mm 2 m/s 747 mmHg 74%
03:00 +16°C° 0 mm 2 m/s 747 mmHg 77%
04:00 +16°C° 0 mm 2 m/s 748 mmHg 79%
05:00 +16°C° 0 mm 2 m/s 748 mmHg 81%
06:00 +18°C° 0 mm 2 m/s 748 mmHg 75%
07:00 +20°C° 0 mm 2 m/s 748 mmHg 70%
08:00 +22°C° 0 mm 3 m/s 748 mmHg 64%
09:00 +24°C° 0 mm 3 m/s 748 mmHg 60%
10:00 +25°C° 0 mm 3 m/s 748 mmHg 56%
11:00 +26°C° 0 mm 3 m/s 748 mmHg 52%
12:00 +26°C° 0.1 mm 3 m/s 748 mmHg 51%
13:00 +26°C° 0.1 mm 2 m/s 748 mmHg 50%
14:00 +26°C° 0.1 mm 2 m/s 748 mmHg 50%
15:00 +26°C° 0 mm 2 m/s 748 mmHg 53%
16:00 +25°C° 0 mm 3 m/s 748 mmHg 56%
17:00 +25°C° 0 mm 3 m/s 748 mmHg 60%
18:00 +22°C° 0 mm 3 m/s 748 mmHg 64%
19:00 +21°C° 0 mm 3 m/s 748 mmHg 68%
20:00 +20°C° 0 mm 3 m/s 748 mmHg 72%
21:00 +19°C° 0 mm 3 m/s 748 mmHg 72%
22:00 +19°C° 0 mm 2 m/s 748 mmHg 73%
23:00 +19°C° 0 mm 2 m/s 748 mmHg 73%

27 Iulie, Marţi

Timp Temperatura Precipitaţii Vânt Presiune Umiditate
00:00 +18°C° 0 mm 2 m/s 748 mmHg 76%
01:00 +17°C° 0 mm 2 m/s 748 mmHg 78%
02:00 +16°C° 0 mm 2 m/s 748 mmHg 80%
03:00 +17°C° 0.1 mm 2 m/s 748 mmHg 80%
04:00 +17°C° 0.1 mm 2 m/s 748 mmHg 79%
05:00 +17°C° 0.1 mm 2 m/s 748 mmHg 78%
06:00 +18°C° 0 mm 2 m/s 748 mmHg 74%
07:00 +19°C° 0 mm 2 m/s 748 mmHg 70%
08:00 +21°C° 0 mm 2 m/s 748 mmHg 67%
09:00 +22°C° 0 mm 3 m/s 748 mmHg 61%
10:00 +25°C° 0 mm 3 m/s 748 mmHg 55%
11:00 +27°C° 0 mm 3 m/s 748 mmHg 49%
12:00 +27°C° 0 mm 3 m/s 748 mmHg 47%
13:00 +28°C° 0 mm 3 m/s 747 mmHg 45%
14:00 +29°C° 0 mm 4 m/s 747 mmHg 43%
15:00 +28°C° 0 mm 3 m/s 747 mmHg 46%
16:00 +28°C° 0 mm 3 m/s 747 mmHg 48%
17:00 +28°C° 0 mm 3 m/s 746 mmHg 51%
18:00 +26°C° 0 mm 3 m/s 746 mmHg 56%
19:00 +24°C° 0 mm 3 m/s 746 mmHg 61%
20:00 +21°C° 0 mm 3 m/s 746 mmHg 66%
21:00 +21°C° 0 mm 3 m/s 746 mmHg 65%
22:00 +21°C° 0 mm 3 m/s 746 mmHg 63%
23:00 +20°C° 0 mm 4 m/s 745 mmHg 61%

28 Iulie, Miercuri

Timp Temperatura Precipitaţii Vânt Presiune Umiditate
00:00 +20°C° 0 mm 4 m/s 745 mmHg 61%
01:00 +20°C° 0 mm 4 m/s 745 mmHg 61%
02:00 +19°C° 0 mm 4 m/s 745 mmHg 61%
03:00 +19°C° 0 mm 4 m/s 745 mmHg 61%
04:00 +19°C° 0 mm 4 m/s 744 mmHg 61%
05:00 +19°C° 0 mm 4 m/s 744 mmHg 62%
06:00 +20°C° 0 mm 4 m/s 744 mmHg 62%
07:00 +21°C° 0 mm 4 m/s 743 mmHg 62%
08:00 +21°C° 0 mm 5 m/s 743 mmHg 63%
09:00 +21°C° 0.2 mm 5 m/s 743 mmHg 69%
10:00 +20°C° 0.2 mm 5 m/s 743 mmHg 75%
11:00 +19°C° 0.2 mm 5 m/s 742 mmHg 80%
12:00 +20°C° 0.1 mm 5 m/s 742 mmHg 78%
13:00 +21°C° 0.1 mm 6 m/s 741 mmHg 75%
14:00 +21°C° 0.1 mm 6 m/s 741 mmHg 72%
15:00 +21°C° 0.2 mm 6 m/s 740 mmHg 74%
16:00 +21°C° 0.2 mm 6 m/s 740 mmHg 76%
17:00 +21°C° 0.2 mm 6 m/s 739 mmHg 78%
18:00 +21°C° 0.7 mm 6 m/s 739 mmHg 83%
19:00 +20°C° 0.7 mm 6 m/s 738 mmHg 88%
20:00 +19°C° 0.7 mm 6 m/s 737 mmHg 93%
21:00 +19°C° 0.9 mm 5 m/s 737 mmHg 94%
22:00 +19°C° 0.9 mm 4 m/s 737 mmHg 95%
23:00 +19°C° 0.9 mm 4 m/s 737 mmHg 96%

29 Iulie, Joi

Timp Temperatura Precipitaţii Vânt Presiune Umiditate
00:00 +19°C° 0.1 mm 3 m/s 736 mmHg 97%
01:00 +18°C° 0.1 mm 3 m/s 736 mmHg 97%
02:00 +18°C° 0.1 mm 3 m/s 735 mmHg 97%
03:00 +18°C° 0.5 mm 3 m/s 735 mmHg 97%
04:00 +18°C° 0.5 mm 3 m/s 735 mmHg 98%
05:00 +19°C° 0.5 mm 3 m/s 735 mmHg 98%
06:00 +19°C° 0.3 mm 4 m/s 735 mmHg 97%
07:00 +19°C° 0.3 mm 4 m/s 736 mmHg 96%
08:00 +19°C° 0.3 mm 4 m/s 736 mmHg 95%
09:00 +21°C° 0.2 mm 5 m/s 736 mmHg 87%
10:00 +22°C° 0.2 mm 5 m/s 737 mmHg 80%
11:00 +23°C° 0.2 mm 6 m/s 737 mmHg 72%
12:00 +23°C° 0.4 mm 6 m/s 737 mmHg 72%
13:00 +23°C° 0.4 mm 6 m/s 737 mmHg 71%
14:00 +23°C° 0.4 mm 6 m/s 737 mmHg 71%
15:00 +23°C° 0.2 mm 6 m/s 737 mmHg 66%
16:00 +24°C° 0.2 mm 6 m/s 737 mmHg 61%
17:00 +26°C° 0.2 mm 5 m/s 737 mmHg 56%
18:00 +23°C° 0 mm 5 m/s 737 mmHg 59%
19:00 +22°C° 0 mm 5 m/s 738 mmHg 63%
20:00 +20°C° 0 mm 4 m/s 738 mmHg 66%
21:00 +19°C° 0 mm 4 m/s 738 mmHg 70%
22:00 +18°C° 0 mm 4 m/s 738 mmHg 74%
23:00 +17°C° 0 mm 4 m/s 739 mmHg 78%
Arată mai mult

Formular de consimțământ

Meteoprog și furnizorii noștri de servicii pot stoca și accesa date personale, precum cookies, identificatori de dispozitiv sau alte tehnologii similare pe dispozitivul dumneavoastră și procesa astfel de date pentru a personaliza conținutul și reclamele, dar și pentru a oferi caracteristici de social media și pentru a analiza traficul.

  • Stocarea și/sau accesarea informațiilor pe dispozitivul dumneavoastră

    Cookies, identificatori de dispozitiv sau alte informații pot fi stocate sau accesate pe dispozitiv în scopurile indicate mai sus.

  • Reclame și conținut personalizat, evaluarea reclamelor și a conținutului, informații despre audiențe și dezvoltarea produselor

    Reclamele și conținutul pot fi personalizate pe baza unui profil. Pot fi adăugate date suplimentare pentru a personaliza mai bine reclamele și conținutul. Performanța reclamelor și conținutului poate fi măsurată. Pot fi obținute informații despre utilizatorii care au văzut reclamele și conținutul. Aceste date pot fi utilizate pentru a dezvolta sau îmbunătăți experiența utilizatorilor, sistemele și software-ul.

Dând clic pe ‘Sunt de acord’, permiteți utilizarea cookie-urilor menționate, a identificatorilor de dispozitiv, balizelor web sau altor tehnologii similare. Setările pot fi modificate din browser-ul dispozitivului dumneavoastră.

În anumite scopuri, interesele legitime pot prima asupra consimțământului. Puteți citi mai multe informații în acest sens în Politica privind Confidențialitatea Datelor și Cookie.